DW1437 Weather Reports


time (UTC)temp
C
wind
direction
speed
KPH
gust
KPH
rain 1hr
cm
rain 24hr
cm
rain mn
cm
humidity
%
barometer
mb
20260506101336 12 5 1.6 8.0 0.00 0.00 0.00 68 1014.6
20260506100356 12 13 1.6 8.0 0.00 0.00 0.00 70 1014.6
20260506095413 12 29 1.6 6.4 0.00 0.00 0.00 69 1014.6
20260506094354 11 33 0.0 6.4 0.00 0.00 0.00 70 1014.5
20260506093410 11 40 1.6 6.4 0.00 0.00 0.00 71 1014.5
20260506092432 11 20 1.6 0.0 0.00 0.00 0.00 70 1014.6
20260506091407 10 66 1.6 4.8 0.00 0.00 0.00 72 1014.6
20260506081756 8 67 0.0 4.8 0.00 0.00 0.00 77 1014.6
20260506072534 7 32 0.0 0.0 0.00 0.00 0.00 80 1014.6
20260506071519 7 32 1.6 4.8 0.00 0.00 0.00 80 1014.5
20260506070510 7 28 0.0 1.6 0.00 0.00 0.00 80 1014.5
20260506061535 7 55 1.6 6.4 0.00 0.00 0.00 81 1014.3
20260506060543 7 38 0.0 4.8 0.00 0.00 0.00 82 1014.2
20260506050519 7 30 0.0 0.0 0.00 0.00 0.00 80 1014.0
20260506044458 7 30 0.0 0.0 0.00 0.00 0.00 80 1013.9
20260506043449 7 30 0.0 0.0 0.00 0.00 0.00 80 1013.9
20260506042459 7 30 0.0 0.0 0.00 0.00 0.00 80 1013.9
20260506041519 7 30 0.0 0.0 0.00 0.00 0.00 79 1013.9
20260506040525 7 30 0.0 0.0 0.00 0.00 0.00 79 1013.9
20260506035516 7 30 0.0 0.0 0.00 0.00 0.00 80 1013.9
20260506034514 7 29 0.0 6.4 0.00 0.00 0.00 80 1013.9
20260506033501 7 76 1.6 6.4 0.00 0.00 0.00 81 1014.0
20260506032443 7 48 0.0 1.6 0.00 0.00 0.00 82 1014.0
20260506031450 7 30 0.0 0.0 0.00 0.00 0.00 81 1014.0
20260506030450 8 30 0.0 0.0 0.00 0.00 0.00 81 1014.0
20260506025500 8 27 0.0 4.8 0.00 0.00 0.00 81 1014.0
20260506023251 8 13 0.0 4.8 0.00 0.00 0.00 82 1014.0
20260506022305 8 32 0.0 0.0 0.00 0.00 0.00 82 1014.0
20260506020122 8 32 0.0 3.2 0.00 0.00 0.00 81 1013.9
20260506015137 8 32 0.0 3.2 0.00 0.00 0.00 80 1013.9
20260506014117 8 32 1.6 3.2 0.00 0.00 0.00 80 1013.9
20260506011956 8 40 1.6 8.0 0.00 0.00 0.00 80 1014.0
20260506011006 8 24 0.0 8.0 0.00 0.00 0.00 81 1014.0
20260506005954 9 355 0.0 0.0 0.00 0.00 0.00 81 1014.0
20260506005017 9 36 0.0 0.0 0.00 0.00 0.00 82 1014.0
20260506003958 9 38 0.0 0.0 0.00 0.00 0.00 82 1014.0
20260506002928 9 32 0.0 0.0 0.00 0.00 0.00 82 1014.1
20260506001926 9 47 0.0 0.0 0.00 0.00 0.00 82 1014.1
20260505235841 9 16 0.0 0.0 0.00 0.00 0.00 82 1014.0
20260505234820 9 15 0.0 0.0 0.00 0.00 0.00 82 1014.0
20260505233804 9 15 0.0 0.0 0.00 0.00 0.00 82 1014.0
20260505232740 9 15 0.0 0.0 0.00 0.00 0.00 82 1014.0
20260505231744 9 0 0.0 0.0 0.00 0.00 0.00 82 1014.0
20260505230805 9 0 0.0 0.0 0.00 0.00 0.00 82 1014.1
20260505225750 9 0 0.0 0.0 0.00 0.00 0.00 82 1014.1
20260505224753 9 311 0.0 0.0 0.00 0.00 0.00 82 1014.1
20260505222700 9 294 0.0 0.0 0.00 0.00 0.00 82 1014.0
20260505221713 10 294 0.0 1.6 0.00 0.00 0.00 81 1014.0
20260505220710 10 294 0.0 0.0 0.00 0.00 0.00 81 1014.0
20260505215712 10 294 0.0 0.0 0.00 0.00 0.00 81 1013.9
20260505214650 10 311 0.0 3.2 0.00 0.00 0.00 80 1013.9
20260505213700 10 311 0.0 0.0 0.00 0.00 0.00 80 1014.0
20260505212639 10 298 0.0 0.0 0.00 0.00 0.00 80 1013.9
20260505210601 10 296 0.0 0.0 0.00 0.00 0.00 79 1013.9
20260505205547 10 296 0.0 0.0 0.00 0.00 0.00 78 1013.9
20260505204558 10 296 0.0 1.6 0.00 0.00 0.00 78 1013.9
20260505203617 10 296 0.0 0.0 0.00 0.00 0.00 77 1013.8
20260505202630 10 295 0.0 0.0 0.00 0.00 0.00 77 1013.8
20260505200519 10 295 0.0 1.6 0.00 0.00 0.00 76 1013.7
20260505195522 10 294 0.0 0.0 0.00 0.00 0.00 76 1013.6
20260505194505 10 293 0.0 0.0 0.00 0.00 0.00 75 1013.5
20260505193448 10 293 0.0 3.2 0.00 0.00 0.00 75 1013.4
20260505191255 11 320 0.0 0.0 0.00 0.00 0.00 74 1013.4
20260505190248 11 307 0.0 0.0 0.00 0.00 0.00 73 1013.3
20260505185218 11 294 0.0 0.0 0.00 0.00 0.00 72 1013.2
20260505184240 11 323 0.0 1.6 0.00 0.00 0.00 72 1013.2
20260505183259 11 355 0.0 0.0 0.00 0.00 0.00 71 1013.2
20260505182236 11 355 0.0 3.2 0.00 0.00 0.00 71 1013.2
20260505181214 12 0 0.0 1.6 0.00 0.00 0.00 71 1013.2
20260505180152 12 5 1.6 12.9 0.00 0.00 0.00 71 1013.2
20260505175127 12 315 0.0 4.8 0.00 0.00 0.00 70 1013.2
20260505174057 12 43 0.0 6.4 0.00 0.00 0.00 69 1013.2
20260505170754 13 312 1.6 12.9 0.00 0.00 0.00 66 1013.3
20260505165818 13 10 0.0 1.6 0.00 0.00 0.00 67 1013.3
20260505163705 14 323 1.6 9.7 0.00 0.00 0.00 66 1013.3
20260505162632 14 315 0.0 9.7 0.00 0.00 0.00 66 1013.3
20260505161627 14 5 3.2 17.7 0.00 0.00 0.00 68 1013.3
20260505160636 14 301 4.8 17.7 0.00 0.00 0.00 66 1013.2
20260505152524 15 309 1.6 6.4 0.00 0.00 0.00 62 1013.4
20260505151514 14 355 1.6 12.9 0.00 0.00 0.00 64 1013.5
20260505150523 13 5 1.6 12.9 0.00 0.00 0.00 66 1013.6
20260505140209 13 311 3.2 16.1 0.00 0.00 0.00 69 1013.7
20260505125025 15 24 1.6 8.0 0.00 0.00 0.00 63 1013.7
20260505122826 13 33 4.8 17.7 0.00 0.00 0.00 67 1013.8
20260505121828 13 306 3.2 17.7 0.00 0.00 0.00 66 1013.8
20260505120801 13 331 1.6 6.4 0.00 0.00 0.00 66 1013.9
20260505115754 13 16 1.6 16.1 0.00 0.00 0.00 67 1013.8
20260505114811 13 27 3.2 16.1 0.00 0.00 0.00 65 1013.9
20260505112634 14 12 1.6 11.3 0.00 0.00 0.00 61 1013.8
20260505111636 14 5 3.2 11.3 0.00 0.00 0.00 63 1013.7